STARLINK-1987 (47583 NORAD) Tracking and Keplerian Element Data
This shows tracking and keplerian element data for the satellite.
Feedback or suggestion? Click here.
Element | Value |
Catalog | 47583 |
Name | STARLINK-1987 |
Epoch Orbit | 403 |
Epoch Day | 56.91667824 |
Epoch Year | 2021 |
RAAN | 17.6337 |
Inclination | 53.0535 |
Eccentricity | 9.91E-05 |
Argument of Perigee | 96.0722 |
Mean Anonmoly | 273.8165 |
Mean Motion | 15.62780031 |
Decay Rate | -0.00027939 |
L1 | 1 47583U 21009AM 21056.91667824 -.00027939 00000-0 -30004-3 0 9998 |
L2 | 2 47583 53.0535 17.6337 0000991 96.0722 273.8165 15.62780031 4034 |
Live tracking and technical data element details for STARLINK-1987 (NORAD 47583). STARLINK-1987 can be tracked NOW for your location showing map with azimuth and elevation plus other details from your city location.
Track the satellite on the map from your city or location and see movement details for azimuth, elevation, latitude, longitude, range, height, and movement on the map or in text.
IsCatalogInMostPopularTable: catalog: 47583, numindb: 1
Update: records affected: 1
GetName: 47583 STARLINK-1987
Hit Count: updated at: Fri, 26 Feb 2021 09:05:08 GMT